Location: Forst
(46.9333°N, 15.4333°E)
Time: 06:22:55
(UTC+00:00)

SL-24 DEB - Pass Details

Date: 01 December 2020
Orbit: 664 x 701 km, 92.0° (Epoch: 18 January)

Event Time Altitude Azimuth Distance (km) Brightness Sun altitude
Rises 17:05:01 0° 5° (N) 3,087 7.5 -18.7°
Reaches altitude 10° 17:07:18 10° 6° (N) 2,160 6.7 -19.1°
Maximum altitude 17:12:05 83° 93° (E) 700 4.1 -19.9°
Drops below altitude 10° 17:16:46 10° 183° (S) 2,120 6.9 -20.7°
Sets 17:19:00 0° 185° (S) 3,024 7.8 -21.1°
